Previsão horária em Abony

Hoje, 18 Maio, Terça-feira

Tempo Temperatura Precipitação Vento Pressão Humidade
00:00 +10°C° 0.2 mm 9 m/s 746 mmHg 83%
01:00 +10°C° 0.2 mm 9 m/s 746 mmHg 82%
02:00 +10°C° 0.2 mm 9 m/s 747 mmHg 80%
03:00 +8°C° 0.2 mm 9 m/s 747 mmHg 79%
04:00 +8°C° 0.2 mm 9 m/s 747 mmHg 78%
05:00 +10°C° 0 mm 9 m/s 748 mmHg 77%
06:00 +10°C° 0 mm 9 m/s 748 mmHg 76%
07:00 +11°C° 0 mm 9 m/s 749 mmHg 75%
08:00 +12°C° 0 mm 9 m/s 749 mmHg 72%
09:00 +13°C° 0 mm 10 m/s 750 mmHg 68%
10:00 +14°C° 0 mm 10 m/s 750 mmHg 65%
11:00 +16°C° 0 mm 10 m/s 750 mmHg 62%
12:00 +16°C° 0 mm 9 m/s 750 mmHg 60%
13:00 +17°C° 0 mm 9 m/s 750 mmHg 58%
14:00 +17°C° 0 mm 8 m/s 750 mmHg 59%
15:00 +17°C° 0 mm 7 m/s 750 mmHg 60%
16:00 +17°C° 0 mm 7 m/s 750 mmHg 61%
17:00 +16°C° 0 mm 6 m/s 750 mmHg 66%
18:00 +14°C° 0 mm 4 m/s 750 mmHg 71%
19:00 +13°C° 0 mm 3 m/s 750 mmHg 76%
20:00 +12°C° 0 mm 3 m/s 750 mmHg 78%
21:00 +12°C° 0 mm 4 m/s 751 mmHg 79%
22:00 +11°C° 0 mm 4 m/s 751 mmHg 81%
23:00 +11°C° 0 mm 4 m/s 751 mmHg 82%

Amanhã, 19 Maio, Quarta-feira

Tempo Temperatura Precipitação Vento Pressão Humidade
00:00 +10°C° 0 mm 3 m/s 751 mmHg 82%
01:00 +10°C° 0 mm 3 m/s 751 mmHg 83%
02:00 +10°C° 0 mm 3 m/s 751 mmHg 85%
03:00 +9°C° 0 mm 3 m/s 751 mmHg 88%
04:00 +9°C° 0 mm 3 m/s 750 mmHg 90%
05:00 +10°C° 0 mm 3 m/s 751 mmHg 86%
06:00 +11°C° 0 mm 3 m/s 751 mmHg 81%
07:00 +14°C° 0 mm 2 m/s 751 mmHg 76%
08:00 +14°C° 0 mm 2 m/s 751 mmHg 74%
09:00 +15°C° 0 mm 2 m/s 751 mmHg 73%
10:00 +16°C° 0 mm 3 m/s 751 mmHg 71%
11:00 +14°C° 0.7 mm 3 m/s 751 mmHg 76%
12:00 +13°C° 0.7 mm 4 m/s 751 mmHg 82%
13:00 +12°C° 0.7 mm 4 m/s 751 mmHg 88%
14:00 +12°C° 1.5 mm 4 m/s 751 mmHg 89%
15:00 +11°C° 1.5 mm 4 m/s 751 mmHg 90%
16:00 +11°C° 1.5 mm 4 m/s 751 mmHg 91%
17:00 +11°C° 0.3 mm 4 m/s 751 mmHg 90%
18:00 +11°C° 0.3 mm 3 m/s 751 mmHg 89%
19:00 +11°C° 0.3 mm 3 m/s 751 mmHg 88%
20:00 +10°C° 0.2 mm 3 m/s 751 mmHg 89%
21:00 +10°C° 0.2 mm 3 m/s 751 mmHg 90%
22:00 +8°C° 0.2 mm 4 m/s 751 mmHg 91%
23:00 +9°C° 0.3 mm 3 m/s 751 mmHg 92%

Depois de amanhã, 20 Maio, Quinta-feira

Tempo Temperatura Precipitação Vento Pressão Humidade
00:00 +9°C° 0.3 mm 3 m/s 751 mmHg 93%
01:00 +9°C° 0.3 mm 3 m/s 751 mmHg 93%
02:00 +9°C° 0.7 mm 3 m/s 751 mmHg 93%
03:00 +9°C° 0.7 mm 3 m/s 751 mmHg 94%
04:00 +9°C° 0.7 mm 3 m/s 751 mmHg 94%
05:00 +8°C° 1.5 mm 4 m/s 751 mmHg 92%
06:00 +8°C° 1.5 mm 5 m/s 751 mmHg 91%
07:00 +9°C° 1.5 mm 5 m/s 751 mmHg 89%
08:00 +9°C° 1.9 mm 5 m/s 751 mmHg 90%
09:00 +9°C° 1.9 mm 5 m/s 752 mmHg 91%
10:00 +9°C° 1.9 mm 5 m/s 752 mmHg 91%
11:00 +9°C° 1.6 mm 6 m/s 752 mmHg 91%
12:00 +9°C° 1.6 mm 6 m/s 752 mmHg 91%
13:00 +10°C° 1.6 mm 6 m/s 752 mmHg 90%
14:00 +10°C° 0.8 mm 5 m/s 753 mmHg 90%
15:00 +9°C° 0.8 mm 5 m/s 753 mmHg 90%
16:00 +10°C° 0.8 mm 4 m/s 753 mmHg 91%
17:00 +10°C° 0.2 mm 3 m/s 754 mmHg 89%
18:00 +10°C° 0.2 mm 2 m/s 754 mmHg 88%
19:00 +10°C° 0.2 mm 2 m/s 754 mmHg 87%
20:00 +10°C° 0 mm 2 m/s 754 mmHg 87%
21:00 +10°C° 0 mm 2 m/s 755 mmHg 87%
22:00 +9°C° 0 mm 2 m/s 755 mmHg 87%
23:00 +9°C° 0 mm 2 m/s 755 mmHg 88%

21 Maio, Sexta-feira

Tempo Temperatura Precipitação Vento Pressão Humidade
00:00 +9°C° 0 mm 3 m/s 755 mmHg 89%
01:00 +9°C° 0 mm 3 m/s 755 mmHg 90%
02:00 +8°C° 0 mm 3 m/s 755 mmHg 90%
03:00 +8°C° 0 mm 3 m/s 755 mmHg 90%
04:00 +8°C° 0 mm 3 m/s 755 mmHg 90%
05:00 +9°C° 0 mm 3 m/s 756 mmHg 86%
06:00 +11°C° 0 mm 3 m/s 756 mmHg 82%
07:00 +12°C° 0 mm 3 m/s 756 mmHg 78%
08:00 +13°C° 0.3 mm 3 m/s 757 mmHg 73%
09:00 +16°C° 0.3 mm 3 m/s 757 mmHg 67%
10:00 +17°C° 0.3 mm 3 m/s 757 mmHg 62%
11:00 +17°C° 0.5 mm 3 m/s 756 mmHg 61%
12:00 +18°C° 0.5 mm 3 m/s 756 mmHg 60%
13:00 +18°C° 0.5 mm 2 m/s 756 mmHg 59%
14:00 +18°C° 0.2 mm 2 m/s 756 mmHg 59%
15:00 +18°C° 0.2 mm 2 m/s 755 mmHg 59%
16:00 +18°C° 0.2 mm 2 m/s 755 mmHg 60%
17:00 +17°C° 0 mm 2 m/s 755 mmHg 65%
18:00 +15°C° 0 mm 2 m/s 755 mmHg 71%
19:00 +14°C° 0 mm 2 m/s 755 mmHg 77%
20:00 +13°C° 0 mm 2 m/s 755 mmHg 80%
21:00 +12°C° 0 mm 2 m/s 755 mmHg 82%
22:00 +10°C° 0 mm 2 m/s 755 mmHg 84%
23:00 +10°C° 0 mm 2 m/s 755 mmHg 86%

22 Maio, Sábado

Tempo Temperatura Precipitação Vento Pressão Humidade
00:00 +10°C° 0 mm 2 m/s 755 mmHg 87%
01:00 +9°C° 0 mm 2 m/s 754 mmHg 88%
02:00 +9°C° 0 mm 2 m/s 754 mmHg 89%
03:00 +9°C° 0 mm 2 m/s 754 mmHg 89%
04:00 +8°C° 0 mm 2 m/s 754 mmHg 89%
05:00 +10°C° 0 mm 2 m/s 754 mmHg 86%
06:00 +11°C° 0 mm 3 m/s 754 mmHg 82%
07:00 +13°C° 0 mm 3 m/s 754 mmHg 78%
08:00 +14°C° 0 mm 4 m/s 754 mmHg 72%
09:00 +17°C° 0 mm 4 m/s 754 mmHg 66%
10:00 +18°C° 0 mm 4 m/s 753 mmHg 60%
11:00 +19°C° 0 mm 4 m/s 753 mmHg 57%
12:00 +20°C° 0 mm 4 m/s 753 mmHg 53%
13:00 +20°C° 0 mm 5 m/s 752 mmHg 50%
14:00 +21°C° 0 mm 4 m/s 752 mmHg 53%
15:00 +21°C° 0 mm 4 m/s 752 mmHg 56%
16:00 +21°C° 0 mm 4 m/s 751 mmHg 58%
17:00 +19°C° 0 mm 3 m/s 751 mmHg 64%
18:00 +18°C° 0 mm 3 m/s 751 mmHg 70%
19:00 +16°C° 0 mm 3 m/s 751 mmHg 75%
20:00 +14°C° 0 mm 3 m/s 751 mmHg 78%
21:00 +13°C° 0 mm 4 m/s 751 mmHg 81%
22:00 +12°C° 0 mm 4 m/s 752 mmHg 84%
23:00 +11°C° 0 mm 3 m/s 752 mmHg 85%

23 Maio, Domingo

Tempo Temperatura Precipitação Vento Pressão Humidade
00:00 +10°C° 0 mm 3 m/s 752 mmHg 85%
01:00 +9°C° 0 mm 2 m/s 752 mmHg 85%
02:00 +9°C° 0 mm 2 m/s 752 mmHg 87%
03:00 +8°C° 0 mm 2 m/s 752 mmHg 89%
04:00 +8°C° 0 mm 2 m/s 752 mmHg 91%
05:00 +10°C° 0 mm 2 m/s 752 mmHg 85%
06:00 +12°C° 0 mm 2 m/s 753 mmHg 79%
07:00 +14°C° 0 mm 2 m/s 753 mmHg 74%
08:00 +15°C° 0 mm 2 m/s 753 mmHg 68%
09:00 +16°C° 0 mm 2 m/s 753 mmHg 63%
10:00 +17°C° 0 mm 2 m/s 753 mmHg 58%
11:00 +18°C° 0 mm 2 m/s 753 mmHg 57%
12:00 +18°C° 0 mm 2 m/s 752 mmHg 56%
13:00 +19°C° 0 mm 2 m/s 752 mmHg 55%
14:00 +19°C° 0 mm 2 m/s 752 mmHg 57%
15:00 +20°C° 0 mm 1 m/s 752 mmHg 58%
16:00 +20°C° 0 mm 1 m/s 752 mmHg 59%
17:00 +18°C° 0 mm 2 m/s 752 mmHg 64%
18:00 +17°C° 0 mm 2 m/s 752 mmHg 69%
19:00 +16°C° 0 mm 2 m/s 751 mmHg 74%
20:00 +15°C° 0.1 mm 2 m/s 752 mmHg 74%
21:00 +14°C° 0.1 mm 2 m/s 752 mmHg 75%
22:00 +14°C° 0.1 mm 2 m/s 752 mmHg 75%
23:00 +13°C° 0.2 mm 2 m/s 752 mmHg 76%
Mostrar mais

Necessitamos do seu Consentimento

A Meteoprog e os seus Fornecedores de Serviços podem armazenar e aceder a dados pessoais como cookies, identificadores do dispositivo ou outras tecnologias semelhantes existentes no seu dispositivo e processar estes dados para personalizar conteúdos e anúncios, assim como funcionalidades nas redes sociais e análise de tráfego.

  • Armazenar e/ou aceder a informações no seu dispositivo

    Os cookies, identificadores do dispositivo ou outras informações podem ser armazenados ou acedidos no seu dispositivo, para os fins acima indicados.

  • Anúncios e conteúdos personalizados, medição de anúncios e conteúdos, dados sobre o público-alvo e desenvolvimento de produtos

    Os anúncios e os conteúdos podem ser personalizados com base num perfil. Podem ser adicionados dados adicionais para uma maior personalização dos anúncios e dos conteúdos. A eficácia dos anúncios e dos conteúdos pode ser medida. Podem ser obtidas informações sobre o público que visualizou os anúncios e os conteúdos. Estes dados podem ser usados para desenvolver ou melhorar sistemas, softwares ou a experiência do utilizador.

Ao clicar em "Eu concordo”, permitirá o uso de cookies, identificadores do dispositivo e web beacons mencionados ou outras tecnologias semelhantes. As configurações do navegador do seu dispositivo podem ser alteradas.

Para certos fins, podem ser invocados interesses legítimos ao invés de consentimento. Pode ler mais informação sobre este assunto na nossa Política de Privacidade e Cookies.